Location: Bottenau
(48.5138°N, 8.0462°E)
Time: 05:18:31
(UTC+00:00)

Cosmos 1553 Rocket - Pass Details

Date: 18 April 2021
Orbit: 942 x 1007 km, 82.9° (Epoch: 09 May)

Event Time Altitude Azimuth Distance (km) Brightness Sun altitude
Exits shadow 22:39:12 52° 257° (WSW) 1,166 4.3 -29.4°
Maximum altitude 22:39:56 55° 284° (WNW) 1,127 4.3 -29.4°
Drops below altitude 10° 22:45:56 10° 2° (N) 2,680 7.2 -29.6°
Sets 22:48:30 0° 7° (N) 3,635 8.1 -29.7°
